EW4711 Weather Reports


Display with metric or nautical units.
time (UTC)temp
F
wind
direction
speed
MPH
gust
MPH
rain 1hr
in
rain 24hr
in
rain mn
in
humidity
%
barometer
mb
20260905123603 65 18 0.0 1.0 0.00 0.01 0.01 98 1013.8
20260905122604 64 22 1.0 3.0 0.01 0.01 0.01 98 1014.0
20260905122103 64 329 1.0 3.0 0.01 0.01 0.01 98 1014.0
20260905121603 63 28 0.0 2.0 0.01 0.01 0.01 99 1013.9
20260905121103 63 356 1.0 2.0 0.01 0.01 0.01 99 1013.9
20260905120603 62 55 1.0 2.0 0.01 0.01 0.01 99 1013.9
20260905120103 62 69 0.0 1.0 0.01 0.01 0.01 98 1013.8
20260905115603 61 347 1.0 2.0 0.01 0.01 0.01 98 1013.7
20260905115103 61 4 1.0 3.0 0.01 0.01 0.01 99 1013.7
20260905113603 59 336 1.0 1.0 0.01 0.01 0.01 98 1013.5
20260905113103 59 336 0.0 1.0 0.00 0.00 0.00 98 1013.4
20260905112603 59 336 0.0 0.0 0.00 0.00 0.00 98 1013.3
20260905112103 58 336 0.0 0.0 0.00 0.00 0.00 98 1013.2
20260905111603 58 336 0.0 0.0 0.00 0.00 0.00 98 1013.3
20260905111103 58 336 0.0 1.0 0.00 0.00 0.00 98 1013.2
20260905110603 58 337 0.0 1.0 0.00 0.00 0.00 97 1013.1
20260905105603 58 337 0.0 0.0 0.00 0.00 0.00 97 1013.1
20260905105104 58 337 0.0 0.0 0.00 0.00 0.00 97 1013.1
20260905104603 58 337 0.0 0.0 0.00 0.00 0.00 97 1013.1
20260905104104 58 337 0.0 0.0 0.00 0.00 0.00 97 1013.1
20260905103603 58 337 0.0 0.0 0.00 0.00 0.00 97 1013.1
20260905103103 58 337 0.0 0.0 0.00 0.00 0.00 97 1013.1
20260905102603 58 337 0.0 0.0 0.00 0.00 0.00 97 1013.1
20260905101104 58 337 0.0 0.0 0.00 0.00 0.00 97 1012.9
20260905100604 58 337 0.0 0.0 0.00 0.00 0.00 97 1012.9
20260905100104 59 337 0.0 0.0 0.00 0.00 0.00 97 1013.0
20260905095603 59 337 0.0 0.0 0.00 0.00 0.00 97 1012.9
20260905094603 59 337 0.0 0.0 0.00 0.00 0.00 97 1012.8
20260905094103 59 337 0.0 0.0 0.00 0.00 0.00 97 1012.8
20260905093603 59 337 0.0 0.0 0.00 0.00 0.00 97 1012.9
20260905093103 59 337 0.0 0.0 0.00 0.00 0.00 97 1012.8
20260905092603 59 337 0.0 0.0 0.00 0.00 0.00 97 1012.7
20260905092103 59 337 0.0 0.0 0.00 0.00 0.00 97 1012.7
20260905091103 60 337 0.0 0.0 0.00 0.00 0.00 97 1012.6
20260905090603 60 337 0.0 0.0 0.00 0.00 0.00 97 1012.5
20260905085603 59 337 0.0 0.0 0.00 0.00 0.00 97 1012.5
20260905084604 60 337 0.0 0.0 0.00 0.00 0.00 97 1012.3
20260905083603 60 337 0.0 0.0 0.00 0.00 0.00 96 1012.2
20260905083103 60 337 0.0 0.0 0.00 0.00 0.00 96 1012.2
20260905082604 60 337 0.0 0.0 0.00 0.00 0.00 97 1012.2
20260905082103 60 337 0.0 0.0 0.00 0.00 0.00 96 1012.2
20260905081603 60 337 0.0 0.0 0.00 0.00 0.00 96 1012.2
20260905081103 60 337 0.0 0.0 0.00 0.00 0.00 96 1012.3
20260905080603 60 337 0.0 0.0 0.00 0.00 0.00 96 1012.3
20260905075603 60 337 0.0 0.0 0.00 0.00 0.00 96 1012.4
20260905075104 60 337 0.0 0.0 0.00 0.00 0.00 96 1012.4
20260905074604 60 337 0.0 0.0 0.00 0.00 0.00 96 1012.5
20260905074103 60 337 0.0 0.0 0.00 0.00 0.00 96 1012.5
20260905073603 61 337 0.0 0.0 0.00 0.00 0.00 96 1012.5
20260905073103 61 337 0.0 0.0 0.00 0.00 0.00 96 1012.4
20260905072603 61 337 0.0 0.0 0.00 0.00 0.00 96 1012.4
20260905072103 61 337 0.0 0.0 0.00 0.00 0.00 96 1012.4
20260905071603 61 337 0.0 0.0 0.00 0.00 0.00 96 1012.5
20260905071103 61 337 0.0 0.0 0.00 0.00 0.00 96 1012.5
20260905070603 61 337 0.0 0.0 0.00 0.00 0.00 96 1012.6
20260905065604 62 337 0.0 0.0 0.00 0.00 0.00 96 1012.7
20260905065103 62 337 0.0 0.0 0.00 0.00 0.00 96 1012.7
20260905064103 62 337 0.0 0.0 0.00 0.00 0.00 96 1012.7
20260905063103 62 337 0.0 0.0 0.00 0.00 0.00 95 1012.7
20260905062603 62 337 0.0 0.0 0.00 0.00 0.00 95 1012.7
20260905062103 62 337 0.0 0.0 0.00 0.00 0.00 95 1012.8
20260905060604 62 337 0.0 0.0 0.00 0.00 0.00 95 1012.9
20260905060103 62 337 0.0 1.0 0.00 0.00 0.00 95 1012.9
20260905055103 62 337 0.0 0.0 0.00 0.00 0.00 95 1013.0
20260905054104 63 336 0.0 1.0 0.00 0.00 0.00 95 1012.8
20260905053103 63 330 0.0 2.0 0.00 0.00 0.00 95 1013.0
20260905052603 63 353 0.0 1.0 0.00 0.00 0.00 94 1012.9
20260905051603 63 353 1.0 3.0 0.00 0.00 0.00 94 1013.0
20260905051103 63 355 0.0 3.0 0.00 0.00 0.00 94 1013.0
20260905050603 63 345 1.0 2.0 0.00 0.00 0.00 94 1013.0
20260905050104 63 345 0.0 2.0 0.00 0.00 0.00 94 1013.0
20260905045603 63 334 1.0 3.0 0.00 0.00 0.00 94 1013.0
20260905045103 63 357 0.0 2.0 0.00 0.00 0.00 94 1013.0
20260905044603 64 358 1.0 6.0 0.00 0.00 0.00 94 1012.9
20260905043104 64 349 0.0 0.0 0.00 0.00 0.00 93 1013.0
20260905042603 64 356 0.0 1.0 0.00 0.00 0.00 93 1013.0
20260905042103 64 338 0.0 0.0 0.00 0.00 0.00 93 1013.0
20260905041603 64 338 0.0 0.0 0.00 0.00 0.00 92 1013.1
20260905041104 64 338 0.0 0.0 0.00 0.00 0.00 92 1013.0
20260905040603 64 338 0.0 0.0 0.00 0.00 0.00 92 1013.0
20260905040103 64 338 0.0 1.0 0.00 0.00 0.00 92 1013.0
20260905035104 64 338 0.0 1.0 0.00 0.00 0.00 91 1013.0
20260905034103 65 338 1.0 2.0 0.00 0.00 0.00 90 1013.0
20260905033603 65 338 0.0 1.0 0.00 0.00 0.00 90 1012.9
20260905032604 66 338 0.0 2.0 0.00 0.00 0.00 89 1012.9
20260905032103 66 338 1.0 2.0 0.00 0.00 0.00 88 1012.8
20260905031603 66 338 1.0 2.0 0.00 0.00 0.00 88 1012.8
20260905031103 67 338 1.0 2.0 0.00 0.00 0.00 88 1012.9
20260905030604 67 338 0.0 1.0 0.00 0.00 0.00 88 1012.8
20260905025603 67 338 2.0 5.0 0.00 0.00 0.00 87 1012.8
20260905025104 67 4 0.0 2.0 0.00 0.00 0.00 87 1012.9
20260905024603 68 350 0.0 3.0 0.00 0.00 0.00 87 1012.9
20260905024103 68 13 1.0 2.0 0.00 0.00 0.00 86 1013.0
20260905023604 68 4 1.0 3.0 0.00 0.00 0.00 86 1013.0
20260905023103 68 338 1.0 2.0 0.00 0.00 0.00 85 1013.1
20260905022603 68 343 1.0 3.0 0.00 0.00 0.00 85 1013.0
20260905022104 68 354 2.0 3.0 0.00 0.00 0.00 85 1012.9
20260905021603 69 325 1.0 2.0 0.00 0.00 0.00 84 1012.9
20260905021103 69 349 1.0 2.0 0.00 0.00 0.00 83 1013.0
20260905020103 69 334 1.0 2.0 0.00 0.00 0.00 83 1012.9
20260905015604 69 323 1.0 3.0 0.00 0.00 0.00 83 1013.0
20260905015103 69 337 2.0 3.0 0.00 0.00 0.00 83 1012.9
20260905014604 69 348 2.0 6.0 0.00 0.00 0.00 83 1012.9
20260905013604 69 327 2.0 3.0 0.00 0.00 0.00 82 1013.0
20260905012604 69 335 1.0 3.0 0.00 0.00 0.00 82 1013.0
20260905011604 69 330 1.0 3.0 0.00 0.00 0.00 81 1013.0
20260905010603 70 335 1.0 3.0 0.00 0.00 0.00 81 1013.0
20260905010103 70 343 1.0 7.0 0.00 0.00 0.00 81 1013.1
20260905004603 70 322 1.0 5.0 0.00 0.00 0.00 82 1013.0
20260905004103 70 326 2.0 5.0 0.00 0.00 0.00 82 1013.0
20260905003603 70 322 2.0 6.0 0.00 0.00 0.00 82 1013.0
20260905003104 70 327 1.0 2.0 0.00 0.00 0.00 82 1012.8
20260905002603 70 346 1.0 3.0 0.00 0.00 0.00 82 1012.7
20260905002103 70 343 2.0 3.0 0.00 0.00 0.00 82 1012.7
20260905001603 70 343 1.0 2.0 0.00 0.00 0.00 81 1012.6
20260905001104 70 343 1.0 2.0 0.00 0.00 0.00 81 1012.5
20260905000603 70 343 1.0 3.0 0.00 0.00 0.00 81 1012.5
20260905000103 70 332 0.0 2.0 0.00 0.00 0.00 81 1012.5
20260904235603 71 331 2.0 3.0 0.00 0.00 0.00 81 1012.5
20260904235104 71 310 1.0 3.0 0.00 0.00 0.00 80 1012.4
20260904234604 71 326 1.0 2.0 0.00 0.00 0.00 80 1012.4
20260904234103 71 325 2.0 3.0 0.00 0.00 0.00 80 1012.5
20260904233603 71 328 2.0 3.0 0.00 0.00 0.00 79 1012.4
20260904233104 71 330 2.0 3.0 0.00 0.00 0.00 79 1012.4
20260904232603 71 316 1.0 3.0 0.00 0.00 0.00 78 1012.5
20260904232103 72 321 2.0 3.0 0.00 0.00 0.00 78 1012.5
20260904231603 72 316 1.0 3.0 0.00 0.00 0.00 77 1012.5
20260904225603 73 334 2.0 6.0 0.00 0.00 0.00 76 1012.3
20260904224604 73 339 2.0 3.0 0.00 0.00 0.00 74 1012.2
20260904224104 73 346 1.0 3.0 0.00 0.00 0.00 74 1012.1
20260904223603 74 335 2.0 3.0 0.00 0.00 0.00 73 1012.1
20260904223103 74 340 2.0 3.0 0.00 0.00 0.00 73 1012.0
20260904222603 74 315 2.0 3.0 0.00 0.00 0.00 72 1011.9
20260904222104 74 333 1.0 6.0 0.00 0.00 0.00 72 1011.9
20260904221603 74 35 1.0 3.0 0.00 0.00 0.00 70 1011.8
20260904221103 74 337 1.0 3.0 0.00 0.00 0.00 69 1011.8
20260904215605 74 357 1.0 3.0 0.00 0.00 0.00 71 1011.5
20260904215103 73 1 3.0 7.0 0.00 0.00 0.00 70 1011.5
20260904214603 73 316 3.0 6.0 0.00 0.00 0.00 71 1011.5
20260904214103 73 344 2.0 5.0 0.00 0.00 0.00 71 1011.6
20260904213603 73 343 2.0 5.0 0.00 0.00 0.00 71 1011.6
20260904213103 74 317 1.0 3.0 0.00 0.00 0.00 72 1011.6
20260904212604 73 336 1.0 3.0 0.00 0.00 0.00 71 1011.6
20260904212103 73 352 2.0 3.0 0.00 0.00 0.00 73 1011.6
20260904211604 73 325 1.0 6.0 0.00 0.00 0.00 71 1011.8
20260904211103 73 328 2.0 3.0 0.00 0.00 0.00 71 1011.8
20260904210603 73 326 2.0 3.0 0.00 0.00 0.00 69 1011.9
20260904205604 73 330 2.0 6.0 0.00 0.00 0.00 68 1012.0
20260904205103 74 330 3.0 6.0 0.00 0.00 0.00 70 1012.1
20260904204104 74 320 1.0 3.0 0.00 0.00 0.00 69 1012.1
20260904203604 74 341 3.0 7.0 0.00 0.00 0.00 67 1012.2
20260904203103 74 348 2.0 3.0 0.00 0.00 0.00 70 1012.0
20260904202604 75 314 0.0 3.0 0.00 0.00 0.00 69 1012.1
20260904202104 75 338 2.0 7.0 0.00 0.00 0.00 69 1012.3
20260904200604 75 335 2.0 3.0 0.00 0.00 0.00 70 1012.3
20260904200103 75 339 2.0 8.0 0.00 0.00 0.00 70 1012.4
20260904195603 75 0 3.0 7.0 0.00 0.00 0.00 71 1012.4
20260904195103 75 322 2.0 9.0 0.00 0.00 0.00 69 1012.5
20260904194603 76 315 6.0 12.0 0.00 0.00 0.00 69 1012.5
20260904194103 76 51 2.0 7.0 0.00 0.00 0.00 72 1012.5
20260904193604 76 270 1.0 3.0 0.00 0.00 0.00 73 1012.7
20260904193104 76 350 2.0 7.0 0.00 0.00 0.00 75 1012.8
20260904192603 75 14 2.0 6.0 0.00 0.00 0.00 73 1012.9
20260904192104 75 12 2.0 7.0 0.00 0.00 0.00 73 1013.0
20260904191603 75 37 3.0 9.0 0.00 0.00 0.00 72 1013.0
20260904191103 75 8 2.0 7.0 0.00 0.00 0.00 72 1013.2
20260904190603 75 2 2.0 6.0 0.00 0.00 0.00 72 1013.3
20260904190104 75 354 2.0 6.0 0.00 0.00 0.00 72 1013.3
20260904185604 75 352 2.0 6.0 0.00 0.00 0.00 71 1013.3
20260904185104 75 8 2.0 6.0 0.00 0.00 0.00 70 1013.3
20260904184603 75 357 2.0 6.0 0.00 0.00 0.00 70 1013.4
20260904183603 75 24 3.0 6.0 0.00 0.00 0.00 68 1013.5
20260904183103 75 0 2.0 7.0 0.00 0.00 0.00 69 1013.4
20260904182604 75 346 5.0 9.0 0.00 0.00 0.00 70 1013.5
20260904182103 75 343 3.0 10.0 0.00 0.00 0.00 70 1013.5
20260904181603 75 357 2.0 7.0 0.00 0.00 0.00 69 1013.5
20260904180604 76 17 5.0 8.0 0.00 0.00 0.00 70 1013.4
20260904180104 76 0 4.0 9.0 0.00 0.00 0.00 69 1013.5
20260904175604 76 5 2.0 6.0 0.00 0.00 0.00 66 1013.4
20260904174603 77 317 1.0 7.0 0.00 0.00 0.00 70 1013.5
20260904173603 77 335 2.0 8.0 0.00 0.00 0.00 71 1013.7
20260904173103 78 333 4.0 10.0 0.00 0.00 0.00 71 1013.7
20260904172604 77 324 2.0 10.0 0.00 0.00 0.00 70 1013.7
20260904172104 77 330 4.0 8.0 0.00 0.00 0.00 66 1013.9
20260904171104 77 332 5.0 9.0 0.00 0.00 0.00 69 1013.9
20260904170604 77 272 2.0 7.0 0.00 0.00 0.00 71 1013.7
20260904165604 77 338 3.0 9.0 0.00 0.00 0.00 72 1013.9
20260904165103 77 346 5.0 8.0 0.00 0.00 0.00 69 1014.0
20260904164104 77 358 3.0 8.0 0.00 0.00 0.00 70 1014.2
20260904163103 77 312 5.0 12.0 0.00 0.00 0.00 72 1014.3
20260904162104 77 330 2.0 7.0 0.00 0.00 0.00 75 1014.4
20260904161603 77 18 5.0 12.0 0.00 0.00 0.00 75 1014.4
20260904161105 76 294 1.0 7.0 0.00 0.00 0.00 76 1014.4
20260904160604 75 312 2.0 6.0 0.00 0.00 0.00 75 1014.4
20260904155603 76 345 1.0 9.0 0.00 0.00 0.00 77 1014.3
20260904155104 76 246 0.0 3.0 0.00 0.00 0.00 79 1014.1
20260904154604 75 301 2.0 6.0 0.00 0.00 0.00 76 1014.1
20260904154104 76 8 2.0 6.0 0.00 0.00 0.00 75 1014.0
20260904153604 76 341 3.0 7.0 0.00 0.00 0.00 76 1013.8
20260904153104 76 178 1.0 3.0 0.00 0.00 0.00 76 1013.7
20260904152605 75 214 1.0 3.0 0.00 0.00 0.00 80 1013.9
20260904151103 75 357 1.0 5.0 0.00 0.00 0.00 81 1014.0
20260904150604 75 81 2.0 3.0 0.00 0.00 0.00 79 1014.1
20260904150104 75 315 1.0 3.0 0.00 0.00 0.00 80 1014.1
20260904145603 74 261 2.0 5.0 0.00 0.00 0.00 80 1014.0
20260904145104 75 26 2.0 6.0 0.00 0.00 0.00 79 1014.0
20260904144604 74 296 2.0 3.0 0.00 0.00 0.00 80 1014.0
20260904144103 75 324 1.0 6.0 0.00 0.00 0.00 81 1013.9
20260904143603 75 12 1.0 3.0 0.00 0.00 0.00 79 1013.8
20260904142603 74 114 2.0 6.0 0.00 0.00 0.00 80 1013.8
20260904142104 74 322 2.0 7.0 0.00 0.00 0.00 83 1013.8
20260904141603 74 327 3.0 6.0 0.00 0.00 0.00 84 1013.8
20260904141104 73 350 1.0 3.0 0.00 0.00 0.00 82 1013.8
20260904140604 73 354 1.0 6.0 0.00 0.00 0.00 84 1013.9
20260904140104 73 312 3.0 6.0 0.00 0.00 0.00 83 1013.9
20260904135103 72 326 2.0 3.0 0.00 0.00 0.00 86 1013.9
20260904134603 71 297 0.0 1.0 0.00 0.00 0.00 86 1014.0
20260904134103 71 297 0.0 2.0 0.00 0.00 0.00 86 1014.0
20260904133603 71 297 1.0 3.0 0.00 0.00 0.00 88 1014.1
20260904132604 70 37 0.0 1.0 0.00 0.00 0.00 90 1014.1
20260904131603 69 353 1.0 3.0 0.00 0.00 0.00 92 1014.1
20260904131104 69 315 3.0 6.0 0.00 0.00 0.00 94 1014.1
20260904130603 68 346 0.0 3.0 0.00 0.00 0.00 94 1014.1
20260904125603 67 2 1.0 3.0 0.00 0.00 0.00 96 1014.3
20260904125104 67 354 2.0 3.0 0.00 0.00 0.00 96 1014.1
20260904124604 66 326 0.0 2.0 0.00 0.00 0.00 96 1014.1
20260904124103 66 338 2.0 3.0 0.00 0.00 0.00 97 1014.2